Location: *
(53.9002°N, 27.5624°E)
Time: 10:36:11
(UTC+00:00)

USA 229 DEB - Pass Details

Date: 12 November 2019
Orbit: 997 x 1215 km, 63.4° (Epoch: 02 December)

Event Time Altitude Azimuth Distance (km) Brightness Sun altitude
Rises 18:29:42 0° 248° (WSW) 3,764 7.1 -36.8°
Reaches altitude 10° 18:32:19 10° 253° (WSW) 2,837 6.4 -37.2°
Enters shadow 18:37:27 48° 288° (WNW) 1,364 4.4 -37.9°
